Date,TemperatureHighF,TemperatureAvgF,TemperatureLowF,DewpointHighF,DewpointAvgF,DewpointLowF,HumidityHigh,HumidityAvg,HumidityLow,PressureMaxIn,PressureMinIn,WindSpeedMaxMPH,WindSpeedAvgMPH,GustSpeedMaxMPH,PrecipitationSumIn
2013-1-1,82,68,58,61,56,53,90,67,41,30.15,29.97,6,1,12,0.00
2013-1-2,82,68,59,64,58,54,90,73,45,30.06,29.91,4,0,9,0.00
2013-1-3,83,71,60,66,62,58,94,74,44,30.09,29.97,5,1,10,0.00
2013-1-4,80,70,64,69,64,60,94,80,56,30.21,30.03,2,0,5,0.00
2013-1-5,79,70,66,68,65,63,94,86,64,30.21,30.09,3,0,5,0.13
2013-1-6,82,71,63,73,65,62,97,82,52,30.15,30.00,4,-14,10,0.00
2013-1-7,79,72,68,70,66,63,92,81,60,30.15,30.03,4,1,7,0.00
2013-1-8,82,73,68,73,68,65,97,85,59,30.18,30.03,5,1,10,0.33
2013-1-9,84,76,71,70,67,65,94,76,54,30.27,30.09,6,2,12,0.04
2013-1-10,80,73,66,69,62,54,90,71,43,30.24,30.12,7,-58,18,0.00
2013-1-11,80,74,68,71,65,61,92,75,56,30.21,30.09,6,2,12,0.17
2013-1-12,82,73,66,65,61,58,88,67,45,30.15,30.03,6,1,10,0.00
2013-1-13,81,71,64,64,62,59,92,73,49,30.09,30.03,5,1,8,0.00
2013-1-14,82,71,63,66,61,58,92,73,47,30.15,30.06,4,1,8,0.00
2013-1-15,77,69,62,70,63,59,94,81,62,30.09,30.00,5,-6,9,0.00
2013-1-16,82,70,59,68,62,56,96,77,51,30.06,29.97,4,1,10,0.00
2013-1-17,82,71,62,69,62,48,92,74,52,30.06,29.91,7,2,12,0.00
2013-1-18,72,62,52,52,47,40,78,60,46,30.18,30.03,5,1,9,0.00
2013-1-19,74,66,57,67,60,51,94,84,70,30.18,30.03,3,-39,4,0.08
2013-1-20,80,69,63,70,63,60,97,81,53,30.12,29.97,3,0,5,0.00
2013-1-21,80,70,64,69,63,61,94,80,57,30.03,29.94,3,-3,6,0.00
2013-1-22,76,66,61,62,54,47,91,66,44,30.18,29.97,5,1,8,0.00
2013-1-23,75,64,58,55,50,48,71,61,40,30.27,30.15,6,1,8,0.00
2013-1-24,75,63,54,50,45,40,74,55,31,30.24,30.15,4,-191,6,0.00
2013-1-25,77,63,53,52,49,46,80,64,40,30.27,30.12,5,-415,8,0.00
2013-1-26,79,64,54,53,50,47,87,63,33,30.24,30.09,4,-364,6,0.00
2013-1-27,78,66,55,60,53,49,91,65,38,30.27,30.15,6,1,10,0.00
2013-1-28,81,71,61,65,59,54,84,67,44,30.30,30.15,7,2,12,0.00
2013-1-29,82,72,66,70,64,60,91,77,52,30.21,30.09,6,1,11,0.00
2013-1-30,82,71,62,66,60,58,93,72,48,30.09,29.91,6,2,15,0.00
2013-1-31,70,65,53,68,53,34,96,67,44,30.15,29.91,4,1,8,0.00